Theta_e
304 305 306 306 307 308 308 308 308 308 309 308 308 309 310 310 311 310 314 317 322 326 328 330 330 331 333 333 332 333 332 330 329 331 332 333 334 334 335 335 335 336 337 336 335 336 334 332 332 331 332 332 331 330 330 329 330 329 329 329 328 326 326 327 328 329 327 324 325 325 324 324 326 324 323 323 324 324 324 325 326 326 325 324 324
304 304 305 306 306 307 307 307 311 305 307 307 307 308 309 309 309 310 312 314 316 321 327 330 333 332 332 332 330 328 328 330 330 332 331 333 333 334 333 335 335 334 336 335 335 334 333 331 331 331 331 331 331 331 330 333 331 330 329 327 329 327 326 326 327 329 324 324 323 322 324 323 324 324 323 323 324 324 323 323 324 325 324 324 324
302 303 304 304 305 305 305 305 305 305 306 305 306 307 308 308 308 309 311 312 314 318 322 328 333 333 332 329 327 327 330 330 330 331 333 333 333 333 333 334 334 332 334 334 333 333 333 332 331 331 330 332 331 330 330 330 330 330 329 328 326 326 327 327 327 330 324 326 326 323 318 321 322 322 323 323 323 323 322 322 323 323 324 324 324
300 301 302 303 303 304 304 304 304 304 304 304 305 305 307 308 307 308 309 312 313 316 321 323 332 333 331 330 330 329 327 329 330 331 330 330 331 332 332 333 333 332 332 333 333 333 333 332 332 331 331 331 331 330 329 329 329 329 329 329 328 325 324 324 328 329 329 326 321 322 319 320 319 320 320 322 323 323 322 321 322 322 323 323 323
300 301 302 302 302 302 302 304 303 303 303 303 304 305 306 305 306 307 309 310 312 316 315 320 330 330 329 329 329 328 328 328 328 328 329 328 329 331 332 333 333 333 334 334 335 334 333 333 332 332 331 331 331 330 329 329 330 330 330 329 328 327 324 324 325 329 329 331 326 319 318 318 319 317 319 322 322 321 321 321 322 322 321 322 322
300 301 301 302 302 302 302 302 302 302 302 303 304 305 305 305 306 307 308 310 311 313 315 318 324 329 329 327 325 325 324 324 323 324 326 326 327 329 332 334 334 334 335 335 335 335 333 333 333 332 332 331 331 331 330 329 329 329 329 329 328 329 328 324 323 327 329 330 330 330 328 323 322 319 321 319 319 323 323 321 321 322 322 322 322
300 300 300 301 301 301 301 301 301 301 303 303 304 305 305 306 306 307 307 310 311 311 314 317 318 324 327 327 327 326 325 326 327 327 327 328 328 329 330 332 334 334 335 335 334 335 334 333 333 332 332 332 332 331 330 329 329 329 330 329 329 329 328 325 324 324 327 328 329 329 328 325 325 322 320 317 318 319 322 322 321 322 322 321 321
300 300 300 300 300 299 299 300 301 301 302 303 304 305 305 305 306 307 308 310 310 311 313 315 315 317 322 326 327 326 326 326 327 327 327 329 328 329 330 330 332 333 334 335 335 335 335 334 333 333 332 332 332 331 331 330 330 330 330 330 330 329 328 327 325 324 324 324 328 328 328 325 324 325 323 323 319 317 319 322 324 323 323 322 322
300 299 299 299 299 299 300 300 301 302 303 303 304 304 305 305 307 307 307 308 309 310 313 312 315 316 319 323 323 325 326 326 328 327 326 327 327 328 329 331 332 333 334 334 335 335 336 335 334 333 332 332 333 332 332 331 330 329 329 329 329 329 329 329 328 325 325 325 325 326 327 326 324 325 324 324 322 319 318 319 321 323 323 323 323
299 299 299 299 299 299 300 301 301 302 303 305 305 305 305 306 307 308 306 308 309 309 310 310 311 314 315 320 321 321 323 324 325 325 326 327 327 327 327 328 330 332 333 334 334 335 335 335 334 333 333 333 333 333 332 331 331 330 330 330 330 329 330 330 329 327 327 327 327 327 325 325 324 323 322 323 322 321 320 317 318 321 320 323 324
299 299 299 299 299 299 300 300 301 302 303 304 304 305 305 306 306 306 307 308 309 309 309 310 310 311 312 315 318 319 320 322 323 325 326 326 325 325 327 328 329 329 331 332 333 334 334 335 335 334 334 334 334 333 332 332 332 332 331 330 330 329 329 328 327 328 327 327 327 327 326 326 325 323 323 323 323 320 318 318 318 321 322 322 324
298 298 298 298 298 299 299 299 300 301 302 302 303 304 305 306 306 306 307 308 308 309 309 310 311 311 311 313 314 317 319 321 322 323 325 325 325 325 326 328 328 329 330 331 331 333 333 334 335 334 334 333 333 334 333 333 333 332 331 330 330 330 329 329 328 327 326 326 327 328 328 328 328 327 327 325 324 324 323 322 321 319 321 322 323
297 297 297 296 296 297 298 299 300 300 301 302 302 304 304 305 306 305 306 307 308 309 309 310 311 311 311 311 312 315 318 320 322 323 325 326 326 326 326 326 329 329 330 330 331 332 333 332 332 333 333 334 334 334 334 334 333 332 331 330 330 329 328 328 327 327 327 326 326 328 328 328 328 329 328 327 326 327 324 322 323 321 321 321 322
296 296 295 295 296 297 298 299 299 300 301 301 302 304 304 304 305 306 306 307 308 309 310 310 311 312 312 311 312 314 316 320 322 324 326 327 327 326 326 326 326 328 329 330 331 332 332 333 333 333 333 334 335 335 334 334 333 331 331 330 329 329 329 328 328 328 328 328 328 327 327 327 328 329 328 327 326 325 323 322 322 321 320 321 320
295 295 296 296 297 297 298 299 299 300 301 301 302 302 303 304 305 305 306 307 308 309 310 310 311 312 312 312 313 314 316 318 321 324 327 328 329 328 327 327 325 326 328 328 330 331 331 332 332 333 333 334 335 335 335 333 332 332 331 331 331 330 330 329 329 328 328 328 328 327 327 327 328 328 328 327 328 327 326 325 323 321 320 320 321
295 295 295 296 296 296 298 299 299 299 300 301 301 302 302 303 305 305 306 307 308 310 310 310 311 312 313 313 313 317 320 321 322 324 327 329 330 330 328 327 327 327 327 327 328 329 329 329 330 330 331 332 333 334 333 332 332 331 331 331 330 332 331 330 330 329 329 329 329 329 328 327 328 328 329 328 327 328 328 327 325 324 321 318 320
294 295 295 295 295 296 298 298 299 300 300 300 301 302 302 302 304 305 306 307 308 309 309 310 311 312 313 314 314 315 317 318 320 321 323 326 329 330 330 329 329 328 327 326 326 327 328 328 328 329 331 332 332 332 333 332 332 331 330 330 330 331 331 330 330 329 329 330 330 330 328 329 329 329 328 328 327 327 328 328 327 325 324 320 319
294 295 295 295 295 297 297 298 299 299 300 301 301 302 302 302 303 305 306 306 307 308 309 311 311 312 313 314 314 314 315 317 319 320 323 324 326 327 329 330 329 328 328 327 327 326 326 328 328 329 330 331 331 331 331 331 331 329 327 327 329 330 328 329 329 330 330 330 330 330 330 329 330 328 328 328 328 327 327 327 327 327 327 323 322
294 294 294 294 295 296 296 297 299 300 301 301 302 302 302 302 304 306 306 307 308 308 309 311 312 313 314 313 313 314 315 315 316 318 320 322 323 326 327 328 329 329 328 327 327 327 327 327 327 327 329 330 330 330 330 330 329 327 326 326 327 329 328 327 329 330 331 331 330 330 331 330 330 329 329 328 328 328 327 327 327 327 327 326 325
294 294 294 295 295 296 296 297 298 299 300 301 301 301 301 301 303 305 307 307 307 307 308 309 311 312 312 312 313 314 314 315 315 315 316 317 319 321 323 325 327 328 328 328 327 327 327 326 327 328 328 328 329 330 330 329 328 327 327 326 326 329 328 327 328 331 332 333 332 331 331 330 330 329 329 328 328 328 328 327 327 327 327 327 326
294 294 294 295 295 296 297 297 299 300 301 302 300 300 300 301 302 304 304 305 306 307 307 308 310 310 310 309 310 311 312 313 313 314 315 315 316 319 320 322 325 326 328 328 328 327 327 327 327 328 328 329 329 329 330 329 328 327 326 326 327 328 328 328 329 330 332 332 332 332 332 332 332 329 329 329 328 327 327 327 328 327 326 327 326
293 294 294 294 295 296 297 298 299 299 299 299 300 300 300 300 301 304 304 304 305 306 307 307 308 308 308 308 309 310 310 311 312 313 313 314 315 316 318 320 323 325 327 327 328 328 328 328 328 328 329 330 330 330 329 329 329 328 327 327 327 327 327 327 328 327 329 330 331 331 332 332 333 331 330 329 329 328 327 327 326 326 326 326 327
294 294 294 294 294 295 296 298 298 298 298 298 298 299 299 300 301 303 303 303 305 306 307 307 306 306 307 307 308 309 309 309 310 311 311 312 313 315 317 318 320 322 325 327 328 328 329 330 330 330 330 330 330 330 330 328 328 328 327 327 327 327 327 327 326 327 328 329 329 330 331 332 332 331 331 330 330 329 328 327 327 327 326 327 327
294 293 294 294 294 295 296 296 297 297 297 297 298 299 299 300 300 302 303 303 304 305 306 306 305 305 306 306 307 308 308 308 309 310 310 311 313 314 317 318 319 320 321 323 326 327 328 328 329 330 330 330 330 330 330 328 326 327 326 326 326 326 327 327 327 327 328 329 329 329 330 331 332 331 331 331 330 330 329 328 327 327 327 326 327
293 293 293 293 294 295 296 296 296 296 296 296 297 298 298 299 300 301 303 303 303 305 305 305 305 304 305 305 306 307 307 308 309 309 309 311 312 313 316 318 319 319 321 321 322 326 327 328 328 328 329 330 330 329 328 328 328 328 328 328 328 328 328 328 328 328 329 329 329 330 330 331 331 331 331 331 331 330 330 329 328 327 327 327 327
292 291 292 292 293 294 294 294 295 295 295 296 297 297 298 299 300 301 303 302 302 303 303 304 304 304 304 304 305 306 306 307 309 309 309 310 312 313 314 316 318 318 320 321 321 323 326 327 328 329 329 330 330 329 328 328 328 328 328 328 328 328 328 329 329 329 329 329 329 329 330 331 331 330 330 331 331 331 330 329 329 329 328 327 327
292 292 292 291 292 293 293 293 293 294 295 295 296 296 297 298 299 301 303 303 302 302 302 302 303 303 303 303 304 304 306 306 307 308 309 310 311 312 313 313 316 316 318 319 321 323 325 327 327 328 328 329 329 329 328 327 327 327 327 327 327 328 328 328 329 329 329 330 330 330 330 331 330 330 331 331 331 331 331 330 330 330 330 329 327
290 290 290 291 292 291 291 292 293 294 294 295 296 296 296 298 298 300 301 301 301 301 301 301 302 302 302 302 303 304 305 306 307 307 308 309 310 310 311 312 314 314 316 317 319 322 325 326 326 327 327 327 327 327 328 328 328 328 327 327 327 327 327 328 328 329 329 330 330 331 331 331 331 331 331 332 332 331 332 331 331 331 330 329 328
290 290 289 289 290 291 291 291 292 292 293 294 294 295 296 297 298 299 299 300 301 300 300 301 302 302 302 302 303 304 305 305 305 305 306 307 308 309 310 311 312 313 315 316 318 320 321 323 325 326 326 327 327 327 324 321 323 327 329 328 328 328 328 327 328 329 330 330 331 331 331 332 332 331 324 324 326 327 331 330 331 331 330 329 328
289 289 289 289 290 290 290 291 291 291 292 293 294 294 295 296 297 298 298 299 300 299 299 300 302 302 302 302 302 303 303 303 303 303 304 305 306 307 309 309 310 312 314 316 317 318 319 321 322 323 325 321 307 302 301 298 298 303 310 317 323 327 328 328 328 328 329 330 330 331 331 330 326 323 320 315 313 314 318 327 330 331 331 330 328
288 288 289 290 290 290 290 290 291 291 291 292 293 293 294 295 296 297 297 298 298 298 298 300 301 302 302 302 302 301 301 301 302 302 303 304 305 306 307 308 307 308 310 313 315 315 316 318 320 314 305 302 301 299 296 293 294 296 304 310 315 318 321 325 328 328 328 329 330 331 331 331 327 323 323 314 311 310 308 309 313 318 324 332 330
289 289 290 290 291 290 290 291 291 291 291 292 292 293 294 295 296 296 297 298 297 297 297 299 300 301 300 300 301 301 300 300 301 301 302 303 304 305 306 306 305 305 306 309 310 311 312 314 312 304 303 301 299 297 293 293 293 294 298 305 311 316 318 320 322 324 325 325 325 327 330 331 331 329 329 327 319 311 307 307 307 308 309 311 315
289 291 293 291 290 291 291 290 289 291 292 293 292 293 294 295 295 296 297 296 296 296 296 298 299 299 299 299 299 299 299 299 300 300 301 302 303 303 303 304 303 304 304 304 305 307 308 310 311 306 302 299 297 295 293 293 292 293 294 302 311 313 316 318 320 321 323 324 325 326 327 329 331 330 328 329 330 329 313 307 308 308 308 307 304
290 291 292 291 290 290 291 291 291 292 293 294 295 295 295 296 296 295 295 294 295 295 296 296 297 298 298 298 298 298 298 298 299 299 300 301 301 301 302 302 302 302 301 301 303 303 305 305 306 307 304 299 296 294 292 292 292 292 292 297 306 311 314 316 317 319 321 322 324 324 325 326 328 330 330 329 330 330 330 324 319 319 321 319 310
291 291 291 290 289 291 290 292 293 295 295 292 293 293 293 294 294 294 294 294 294 294 295 296 296 297 297 297 297 297 297 298 298 298 299 299 300 300 300 299 300 300 299 299 300 301 302 302 302 302 304 300 295 293 292 291 291 291 292 297 302 305 307 308 310 310 313 317 320 322 323 323 325 326 328 326 328 328 329 329 328 326 325 325 326
292 291 290 289 290 290 291 292 297 292 292 292 292 292 292 293 293 293 293 293 293 294 294 295 295 296 296 296 296 296 296 296 297 297 297 297 298 298 298 298 298 298 298 299 299 300 299 299 300 300 299 300 297 292 292 291 291 291 292 297 299 301 302 302 302 302 303 306 310 315 318 320 322 324 319 309 312 321 325 325 325 327 327 328 327
292 291 291 290 290 290 290 294 291 291 291 291 291 292 292 292 293 292 292 293 293 293 294 294 295 295 296 295 296 296 296 296 295 296 296 296 296 297 297 297 295 296 295 296 297 297 298 298 298 298 297 297 297 294 291 291 290 290 293 294 295 296 297 298 298 298 300 302 305 307 309 313 317 320 310 298 297 302 314 319 323 324 326 327 328
291 290 291 291 291 290 294 290 290 291 291 290 291 292 291 291 292 291 291 292 292 292 293 294 294 295 295 295 295 296 295 295 294 294 295 295 296 297 296 296 294 294 294 294 296 296 296 296 296 295 296 295 296 295 292 291 290 290 292 292 293 293 294 294 294 295 296 298 300 304 305 305 307 310 297 294 294 301 307 310 314 317 321 323 326
292 292 292 291 290 290 292 291 288 291 291 289 290 291 292 291 291 290 290 290 291 292 292 293 294 294 295 295 295 295 295 294 294 293 294 294 295 295 295 294 294 294 294 294 296 295 295 295 295 294 297 294 294 294 292 290 290 290 291 291 291 291 291 291 291 292 294 296 297 299 301 300 300 299 294 294 294 297 300 302 305 309 312 317 324
291 291 292 292 294 294 290 289 290 291 290 290 290 291 293 292 291 289 290 290 291 292 292 293 293 294 294 295 294 295 295 294 293 293 294 294 295 295 294 293 293 293 293 293 294 294 293 294 294 294 293 293 293 293 292 290 290 290 290 291 290 289 289 289 289 291 292 293 294 295 297 295 293 293 293 292 293 292 295 296 299 302 307 311 319
292 293 294 292 290 290 291 290 290 290 290 291 290 291 291 291 290 289 290 290 291 292 293 293 293 293 294 294 293 293 293 293 294 293 294 294 294 294 293 293 292 292 292 292 292 293 293 293 293 293 292 292 293 292 291 290 290 290 289 289 289 289 288 288 289 290 291 291 292 293 295 295 293 293 292 292 292 292 292 295 296 299 305 309 305
294 295 293 291 290 289 289 290 290 290 292 289 290 292 291 290 288 289 289 290 291 292 292 292 292 292 293 293 292 293 293 293 294 294 292 292 293 294 294 293 292 292 291 291 292 292 292 292 292 292 292 291 293 294 291 290 289 289 289 289 288 289 289 289 289 290 291 291 292 293 294 295 293 292 292 292 291 291 291 295 295 294 294 294 300
292 292 292 293 291 290 290 289 290 289 289 289 289 291 291 289 289 289 290 290 292 291 291 292 292 292 293 293 292 292 292 293 293 293 292 291 292 293 293 293 291 291 290 290 290 291 291 290 291 291 291 291 291 291 291 290 289 289 289 288 288 288 288 290 289 289 290 291 293 294 295 296 292 291 291 291 291 291 293 294 292 291 292 292 295
292 294 293 294 291 290 290 290 289 290 288 289 290 291 292 290 289 289 290 292 291 291 291 291 292 291 291 292 292 292 291 291 292 292 293 291 291 291 292 292 291 290 289 289 290 290 290 289 289 289 290 290 290 290 290 289 289 288 288 288 288 288 289 290 290 290 291 292 292 293 294 291 291 291 291 291 291 291 293 291 291 291 291 292 297
292 292 293 292 292 291 289 290 289 289 289 289 289 290 291 290 290 291 291 290 291 292 291 290 290 290 290 290 290 290 291 291 291 291 291 291 290 290 290 290 290 289 289 289 289 290 288 288 288 288 288 289 289 289 288 289 288 288 288 288 287 288 288 289 289 291 292 292 291 290 290 291 291 291 291 292 293 294 293 292 292 292 296 299 300
290 290 292 291 291 290 289 290 289 288 289 292 288 289 290 290 290 291 290 290 292 291 291 290 289 290 289 289 289 290 290 290 290 291 292 291 290 290 290 290 289 289 289 289 289 289 288 288 287 287 287 287 288 288 287 287 289 289 288 287 287 288 289 289 290 290 289 289 289 290 291 292 293 294 296 296 296 296 294 293 292 294 298 298 299
290 291 292 290 290 290 290 290 289 288 288 290 288 288 289 290 291 289 289 290 292 291 292 289 288 289 289 289 289 290 290 289 290 290 290 291 291 289 289 289 289 288 288 288 288 288 287 287 286 286 287 287 287 287 287 286 287 286 286 287 287 288 289 289 289 289 289 290 291 291 290 290 291 291 292 293 294 296 298 300 302 303 302 301 302
291 291 292 291 291 290 290 290 290 289 289 290 289 289 289 288 288 288 288 290 292 291 288 287 287 288 290 290 289 291 290 288 289 289 289 289 289 290 289 288 288 287 287 287 287 287 286 285 285 286 286 286 286 286 286 285 286 286 286 286 286 287 287 287 287 287 288 289 288 289 288 289 289 290 290 291 292 292 293 294 296 299 302 305 306
289 290 291 291 290 291 291 291 290 289 289 290 290 289 288 287 288 288 288 290 290 290 289 287 287 286 288 290 290 289 288 288 288 289 289 289 289 289 289 289 290 291 289 288 287 287 287 286 286 285 285 284 285 285 286 287 287 286 286 285 285 286 286 286 288 287 287 286 286 286 285 285 285 285 286 286 287 288 289 289 291 292 292 295 300
290 291 290 291 292 291 290 290 290 288 289 289 288 288 288 288 287 288 288 291 291 289 287 287 288 287 288 289 289 288 288 289 287 288 288 289 289 290 289 289 289 290 289 289 289 288 288 287 286 286 286 284 284 285 287 287 286 286 286 286 286 287 287 286 287 287 286 284 283 283 283 283 283 283 283 283 284 284 285 285 286 287 289 291 291
290 290 289 289 290 292 291 290 289 288 289 290 288 288 287 287 287 288 287 289 289 291 289 286 289 288 287 289 288 287 288 287 287 287 287 288 288 289 288 289 289 290 289 288 288 288 288 288 287 285 286 286 286 286 286 286 286 286 286 286 286 286 286 286 286 285 285 283 281 281 281 282 282 282 282 282 282 282 282 283 283 284 286 287 287
Wind_Speed
3 3 6 6 7 6 5 5 5 4 7 8 9 9 8 7 8 10 8 7 6 7 6 4 4 4 5 6 6 1 1 3 5 6 6 7 2 3 4 4 5 6 7 7 7 7 6 5 5 5 5 5 6 8 8 8 7 7 6 5 7 6 5 6 6 5 4 1 3 5 5 5 5 5 5 4 6 4 3 4 3 4 4 5 5
5 11 10 9 9 8 7 8 9 11 8 7 8 7 7 8 8 8 7 8 6 6 6 7 4 4 5 3 2 3 4 4 3 5 10 9 10 8 3 7 6 6 6 7 7 8 7 7 7 7 6 6 6 5 4 6 6 6 6 6 6 8 6 8 7 8 3 5 3 3 3 1 4 5 5 6 5 5 5 5 4 5 6 5 4
6 5 7 8 8 8 6 5 5 3 3 4 4 5 7 8 8 9 8 8 7 6 7 7 6 4 3 2 4 3 3 2 0 0 4 7 10 12 12 11 7 4 6 6 7 8 9 8 8 7 7 7 6 7 7 7 7 9 8 8 6 4 4 4 8 9 6 5 2 2 1 3 2 2 3 5 7 6 5 5 6 6 7 5 4
5 4 5 6 6 7 9 11 9 8 10 11 11 9 6 7 7 8 9 8 8 7 8 8 8 3 2 3 3 3 3 2 5 3 4 6 8 8 9 10 11 12 11 10 9 9 10 10 8 8 9 8 8 8 7 8 7 7 7 7 5 5 5 6 6 8 5 8 3 5 2 1 4 4 5 5 7 7 7 7 5 6 6 5 4
5 6 7 8 9 9 8 7 8 9 9 9 9 9 8 8 7 7 7 7 7 7 9 9 8 2 3 4 4 4 4 4 5 6 6 7 6 6 10 11 11 11 11 12 11 11 10 9 9 9 9 9 8 8 9 10 9 9 9 8 8 9 7 4 5 7 8 8 7 4 2 2 5 2 3 4 4 5 8 7 7 7 7 6 5
4 5 5 6 6 8 9 9 10 9 9 7 5 6 7 8 9 9 8 8 8 8 8 8 7 7 6 6 6 4 5 4 5 7 7 8 9 9 7 8 11 12 12 12 12 11 11 10 9 9 9 8 8 9 8 6 8 9 9 8 8 8 6 5 5 5 6 8 8 8 7 6 5 3 3 5 0 6 2 6 8 8 6 6 6
3 3 4 5 6 8 8 8 7 8 8 6 5 6 7 7 7 7 8 8 7 8 7 7 8 7 8 7 7 7 8 6 4 6 6 6 6 7 9 8 8 8 10 11 11 11 10 9 9 9 9 8 7 7 7 9 9 9 7 7 9 7 6 8 7 6 2 6 5 5 1 2 5 6 5 2 4 1 4 5 6 7 7 7 7
1 2 2 3 3 3 5 6 6 7 7 6 6 6 8 8 8 8 7 7 7 7 7 5 6 7 8 9 6 7 7 9 7 6 5 5 6 7 7 8 9 9 8 9 9 10 9 9 9 9 9 9 8 8 9 8 6 6 8 9 8 7 9 9 7 7 10 6 7 8 6 2 2 2 5 7 5 5 3 1 2 6 6 6 7
0 0 1 3 4 4 4 7 6 7 7 7 6 5 6 6 7 7 8 8 8 8 7 7 5 7 7 7 8 7 7 7 6 6 6 5 5 5 6 6 6 8 8 8 9 10 10 10 10 9 9 9 8 8 8 8 9 8 8 8 8 8 8 8 6 7 8 7 6 7 6 5 3 1 1 2 4 5 5 4 3 1 4 6 7
2 1 1 2 2 3 4 4 7 7 7 6 4 4 5 6 7 8 9 8 8 9 8 8 6 5 7 7 9 9 6 6 5 7 6 5 6 6 6 6 5 5 6 6 6 7 8 8 8 9 9 9 8 8 8 7 7 8 8 8 8 9 7 7 9 7 8 6 8 7 8 5 3 2 2 2 1 3 8 4 4 5 4 6 7
1 1 1 2 3 3 4 6 6 7 7 7 7 7 6 7 9 10 9 8 8 9 8 9 7 5 6 7 8 9 9 7 7 8 6 6 7 6 5 6 5 5 4 4 5 6 7 7 7 8 8 8 8 8 7 7 7 7 8 8 10 11 8 8 7 6 6 7 8 7 9 9 10 9 8 6 7 5 2 6 5 5 7 6 6
1 1 2 3 5 6 5 6 7 7 7 9 8 8 7 7 8 10 11 10 9 9 9 9 8 7 5 7 9 9 8 7 8 8 7 7 7 6 3 4 4 5 4 5 5 5 6 6 7 7 7 8 8 8 7 7 7 7 7 7 6 6 6 6 6 6 6 6 8 7 7 7 7 8 6 8 8 7 8 8 6 2 4 5 3
1 0 1 2 3 4 5 5 6 8 9 10 10 9 7 8 9 10 12 11 10 9 9 10 9 8 7 7 8 8 8 7 8 8 8 7 5 5 4 4 4 4 4 5 6 6 5 5 5 5 6 7 7 7 7 8 7 7 7 6 6 7 8 8 7 8 7 8 8 7 7 7 8 6 6 7 7 6 7 8 4 4 8 5 2
2 2 1 1 2 4 5 6 7 8 9 10 10 9 8 8 9 9 12 11 10 10 10 10 10 9 7 7 7 7 8 6 6 7 8 5 4 5 6 5 4 3 2 4 5 6 5 6 6 6 5 4 5 6 7 7 7 7 7 8 9 9 8 10 11 9 8 9 7 7 8 8 7 6 7 7 7 7 6 7 6 4 4 6 2
2 1 1 3 4 5 6 7 7 7 9 9 9 9 9 9 9 11 11 11 11 11 9 10 10 10 8 7 7 6 6 6 5 5 6 6 5 5 6 5 4 4 3 3 3 5 8 7 7 6 5 6 6 7 6 6 7 7 8 10 9 8 9 8 7 9 10 11 10 9 8 7 7 7 7 7 7 9 8 7 7 9 6 5 6
1 1 2 3 4 4 5 6 6 7 8 8 9 9 9 9 9 10 11 11 10 10 10 9 10 8 8 8 8 7 4 4 4 4 6 6 7 5 5 5 5 5 6 7 6 5 5 2 1 4 5 5 6 7 7 7 7 8 7 6 8 6 7 8 8 7 9 9 8 7 7 8 7 7 7 7 7 7 8 6 7 8 9 9 5
1 2 1 3 4 4 4 5 6 6 7 8 9 9 10 10 9 10 11 11 11 10 10 10 9 8 8 8 8 8 7 5 4 5 5 5 6 6 5 5 6 6 7 6 5 4 5 5 6 8 9 8 7 7 7 8 7 7 6 3 4 3 4 6 5 6 7 7 7 9 9 7 7 6 6 6 6 6 7 7 8 9 8 9 9
2 3 3 3 3 4 5 5 5 6 7 7 9 9 8 8 8 7 10 11 12 11 11 10 10 8 8 9 8 7 7 7 6 6 6 5 5 5 5 5 5 6 6 6 5 5 5 5 5 6 6 6 7 7 7 7 7 4 3 1 8 5 4 4 4 6 7 6 8 7 7 7 6 6 7 8 7 8 8 6 7 8 7 10 9
3 4 3 3 3 4 4 5 6 6 7 7 8 8 8 8 8 6 9 9 10 8 8 8 8 6 6 7 7 7 7 6 6 6 5 5 6 5 6 6 6 6 5 5 6 6 5 5 6 6 6 6 5 6 6 6 6 7 8 10 9 2 5 7 9 8 8 7 8 9 7 7 6 7 6 6 7 7 7 6 7 6 8 10 10
4 4 4 4 4 4 4 5 6 7 7 7 7 7 8 8 7 7 9 9 10 10 9 9 9 8 8 8 8 7 6 6 5 6 7 7 6 5 5 6 6 5 6 6 6 6 6 5 4 5 6 6 6 6 6 7 7 7 8 8 7 8 8 9 9 8 7 8 9 9 9 8 7 6 6 6 6 7 7 7 7 6 8 9 9
4 5 4 4 4 4 5 5 5 6 5 6 6 6 7 7 7 8 9 10 10 10 9 8 8 8 9 9 9 9 9 7 6 6 6 7 6 6 6 5 5 5 6 6 8 7 6 6 6 6 6 7 7 6 6 6 7 7 7 8 6 7 9 9 10 11 10 9 10 11 11 10 8 8 8 7 7 7 7 7 6 6 7 7 8
5 4 4 4 4 4 4 5 5 5 6 7 8 6 6 7 7 7 8 8 9 10 9 9 8 7 8 8 9 8 8 8 7 7 7 7 8 8 6 6 5 6 6 6 8 7 6 7 7 7 7 6 6 6 6 6 7 7 7 6 7 7 8 9 9 9 8 7 8 9 10 9 8 10 9 10 9 9 8 9 10 10 11 9 8
4 4 3 3 3 4 4 5 6 5 6 7 6 6 7 7 7 6 7 9 9 9 8 8 8 8 8 8 7 8 8 9 9 8 8 7 7 8 8 7 6 6 5 5 7 7 6 6 7 7 6 6 5 6 4 5 7 7 7 6 6 7 8 9 10 10 10 8 9 9 10 9 7 8 9 9 9 10 9 9 11 9 11 10 8
4 3 3 3 3 4 4 5 6 6 6 7 7 7 7 7 7 6 7 8 8 8 8 9 9 9 8 8 8 8 9 10 9 8 9 8 7 7 7 8 8 6 4 4 5 6 6 6 6 5 5 5 5 5 5 5 6 8 8 8 7 7 9 9 9 9 8 8 8 10 10 9 9 10 10 9 9 10 10 10 11 10 11 12 9
3 4 3 4 4 4 4 4 4 5 6 6 7 7 7 8 7 7 6 6 7 7 8 8 8 9 9 8 9 8 9 10 10 8 10 9 8 8 7 8 8 8 7 4 3 4 6 6 6 6 6 5 5 5 5 5 6 6 7 7 7 8 8 9 9 9 10 9 9 10 10 9 9 10 10 10 10 12 10 9 11 9 9 9 9
4 4 4 4 4 3 4 4 4 4 4 5 6 6 7 7 8 7 6 6 7 7 7 7 7 8 9 9 9 9 9 9 9 8 9 8 8 8 8 7 7 8 8 7 5 2 4 5 5 6 5 4 4 5 6 7 7 7 7 6 6 7 8 8 9 9 9 9 9 10 10 10 10 11 11 10 11 13 12 10 11 9 9 8 10
3 3 4 3 4 4 3 3 3 4 4 4 5 6 6 6 8 8 6 6 7 7 7 7 7 8 8 9 10 10 9 9 8 8 7 7 8 8 9 9 8 7 7 8 7 6 3 3 4 4 5 5 4 4 4 5 6 7 7 7 7 7 8 8 9 10 10 9 9 10 10 10 11 11 12 12 11 11 10 13 12 12 11 10 10
3 3 4 4 4 4 3 3 4 4 4 5 5 5 5 6 7 7 7 6 6 7 7 7 7 8 8 9 9 9 9 9 9 8 8 7 7 8 9 8 8 8 8 8 7 7 6 4 3 2 3 3 3 3 4 5 5 6 6 7 8 8 9 9 9 9 9 9 10 10 10 11 11 11 11 12 12 11 10 11 10 9 9 10 10
3 4 4 3 3 3 4 3 3 3 4 5 5 5 5 6 6 6 7 7 7 7 8 7 7 8 8 8 8 8 8 8 9 9 10 10 9 8 8 8 8 8 7 7 7 6 6 7 5 3 3 2 2 4 7 8 8 7 6 7 8 8 8 9 9 9 9 9 9 10 11 11 12 14 16 14 14 13 10 10 10 9 10 10 10
4 4 3 3 3 3 3 3 2 3 4 5 5 5 5 5 6 7 7 7 7 8 8 8 8 8 8 8 8 8 8 9 9 9 9 9 9 8 8 9 10 9 9 9 8 8 8 8 6 6 6 9 10 8 12 17 12 7 7 7 8 7 7 8 9 9 9 9 10 10 11 15 15 15 15 16 17 17 15 12 11 10 10 10 9
4 4 4 3 3 3 2 1 2 3 3 4 4 4 5 5 6 6 7 7 6 7 7 7 9 9 9 8 8 8 8 9 9 8 9 9 9 8 8 10 10 10 11 10 9 11 10 9 10 12 12 8 7 9 17 16 16 16 10 6 4 5 7 8 7 7 7 8 9 11 11 13 15 15 17 20 19 18 15 17 19 18 13 11 11
4 4 3 3 3 1 1 1 2 3 3 4 4 5 4 5 5 6 6 6 7 7 7 8 8 9 9 10 9 9 8 8 8 9 8 8 8 9 10 10 11 12 11 9 10 9 9 9 9 10 9 8 8 15 17 18 17 16 15 8 5 4 4 5 7 7 7 6 7 7 7 7 8 11 11 12 15 17 17 17 17 19 19 18 15
4 4 4 5 3 1 1 1 2 2 3 4 3 3 4 5 6 6 6 7 7 6 7 7 8 8 8 8 8 9 8 8 8 8 7 7 9 10 11 11 11 9 9 11 10 9 9 8 7 8 9 9 9 15 16 19 18 17 16 12 7 8 7 6 5 6 7 7 6 6 6 6 7 9 9 11 11 11 15 20 20 19 20 19 18
4 5 5 4 2 1 1 1 1 2 2 3 2 2 3 3 4 5 6 6 6 7 6 7 7 8 8 8 8 7 8 8 7 7 7 8 8 10 9 8 8 9 10 10 10 10 9 9 9 8 7 9 10 14 17 19 19 18 16 11 7 7 7 7 8 6 6 7 8 8 8 7 6 7 7 8 9 10 9 7 9 11 12 14 17
6 5 5 5 2 0 0 1 1 2 2 3 3 3 4 4 5 6 6 6 6 6 7 6 7 7 7 8 8 7 8 8 8 7 7 8 8 9 10 9 9 9 9 9 9 9 9 9 10 9 7 8 9 16 16 18 19 19 16 9 7 7 6 7 8 9 9 8 8 7 8 8 8 7 6 8 10 10 10 11 10 11 12 13 13
7 7 6 4 3 3 2 1 0 1 1 1 2 3 3 4 3 5 6 5 5 6 6 6 7 7 8 8 8 8 8 7 8 8 8 9 10 9 10 9 7 7 7 7 7 7 9 10 10 10 9 8 9 17 17 18 20 20 15 7 8 7 7 7 7 8 8 7 8 8 9 9 9 9 8 11 11 10 11 12 12 11 11 11 12
6 5 5 4 3 3 2 1 0 0 2 2 2 2 2 4 5 5 5 5 6 6 7 6 6 7 7 8 8 8 8 8 7 8 9 9 10 10 9 8 7 7 7 8 8 8 8 9 10 10 10 8 8 14 16 18 19 21 14 8 8 7 7 7 7 8 8 7 7 8 9 8 8 8 13 18 18 15 11 12 13 13 11 11 10
4 2 1 2 2 1 0 2 1 2 1 1 1 1 3 4 4 5 5 5 5 6 6 7 7 7 7 7 7 7 7 7 7 8 8 8 7 7 8 8 7 8 7 8 7 6 7 8 10 10 11 9 9 12 16 16 18 19 16 9 8 8 8 8 8 8 7 7 9 14 13 9 10 10 15 15 15 12 8 8 10 12 13 13 10
6 7 5 4 4 4 3 2 2 2 1 1 0 2 4 3 3 3 3 4 4 4 5 5 6 7 7 7 7 7 7 7 7 7 8 8 8 7 6 6 7 6 7 7 7 5 6 7 8 9 14 11 9 11 14 15 19 19 17 11 10 8 9 9 10 10 8 7 9 9 13 12 12 12 16 16 14 11 8 8 9 10 11 11 10
4 3 4 5 4 3 3 3 2 1 1 0 1 3 3 2 3 2 4 4 4 4 4 4 5 5 5 7 7 7 7 7 7 7 7 7 6 6 7 6 7 6 6 7 6 7 8 7 7 8 8 9 9 9 12 14 18 18 19 13 9 10 11 12 11 11 11 10 9 9 10 12 14 15 16 15 15 14 10 10 9 8 9 11 8
6 5 4 4 4 5 5 4 2 0 0 0 2 4 3 1 2 4 4 3 4 3 3 4 5 5 6 6 6 6 7 7 7 6 6 6 5 6 6 6 6 6 7 7 8 7 7 8 8 7 8 9 10 11 12 14 16 18 19 18 10 11 12 12 12 11 10 11 11 11 11 13 14 15 16 18 18 18 15 11 10 9 9 10 11
2 5 5 4 4 4 3 1 0 0 0 1 3 3 1 1 3 3 3 3 2 2 3 4 5 6 6 6 6 6 5 5 5 5 6 6 6 5 6 7 6 6 7 8 8 7 7 7 7 7 8 8 11 15 11 14 17 18 18 21 13 11 12 12 11 10 11 11 11 12 12 15 17 17 19 19 18 17 16 12 12 14 16 17 14
4 3 4 6 5 5 4 3 0 0 0 1 3 3 1 1 3 2 3 2 1 2 3 4 4 5 5 5 5 6 5 4 5 5 6 7 6 6 7 7 7 7 8 9 8 8 7 7 7 7 7 8 8 10 16 14 16 17 17 18 18 14 15 11 10 11 11 11 10 10 11 17 19 20 19 19 17 17 16 12 15 17 18 17 15
6 7 8 5 6 5 4 2 1 1 1 2 3 2 1 2 2 2 2 1 2 3 3 4 4 4 4 5 4 5 5 5 5 5 5 7 7 7 7 7 6 7 7 8 7 7 7 8 9 8 7 9 9 9 11 16 16 17 16 17 16 16 14 11 11 9 10 10 10 11 13 20 20 19 19 18 17 16 12 15 16 17 18 15 11
8 7 6 5 8 7 4 3 1 1 1 2 2 2 1 1 2 1 2 1 2 2 4 4 4 4 4 4 4 5 5 6 6 6 7 7 8 7 7 8 7 7 7 7 9 8 8 9 9 10 10 9 10 9 10 12 18 17 15 16 17 16 15 16 12 10 10 11 15 20 20 18 16 16 16 16 13 12 13 13 15 15 16 10 10
5 4 6 6 5 5 5 5 2 2 2 2 2 2 1 0 1 1 1 0 1 2 4 4 3 4 4 4 5 5 6 6 6 5 6 5 5 7 8 6 7 7 7 8 8 8 9 9 9 9 10 10 11 10 11 12 14 16 15 18 19 16 19 19 16 11 16 19 17 16 16 15 13 12 11 10 10 11 14 15 15 15 10 9 9
8 8 6 5 6 6 6 5 5 3 4 3 3 3 2 1 1 1 0 0 2 3 3 3 3 3 3 4 4 4 5 5 5 5 5 5 4 5 5 6 6 6 6 7 8 8 9 9 9 9 10 10 10 10 11 12 13 14 13 14 14 13 17 16 12 13 14 13 13 14 13 14 12 15 14 12 12 13 11 10 9 8 7 7 8
8 7 7 7 7 8 7 6 6 6 5 4 3 3 2 1 1 0 0 1 2 3 3 2 1 1 2 2 3 5 5 5 5 5 5 6 5 4 5 6 7 7 7 7 7 8 8 9 9 9 9 10 10 10 11 14 14 14 13 12 12 12 12 12 13 14 13 13 12 12 11 10 10 10 10 9 10 9 10 11 11 12 12 11 10
7 6 7 9 8 8 8 8 7 6 6 4 4 3 2 2 1 1 2 3 3 1 1 1 1 1 1 1 2 2 3 4 5 5 5 4 5 5 5 5 4 4 5 6 6 6 7 7 7 8 9 10 9 10 12 14 14 17 15 14 12 12 11 11 14 18 13 12 10 10 10 11 12 13 12 12 12 12 11 12 13 12 11 12 13
8 7 8 7 7 8 8 8 7 6 6 5 4 4 3 2 2 2 3 4 3 2 1 1 0 0 1 1 2 3 3 3 4 4 5 5 5 5 4 3 3 4 7 7 5 4 5 5 6 6 7 7 8 9 15 18 19 19 20 19 17 16 16 14 17 16 12 10 11 11 11 12 12 12 13 13 13 13 13 13 12 13 11 11 10
8 7 8 8 8 7 7 7 7 6 6 6 5 4 3 3 3 3 4 4 3 3 2 1 1 1 2 2 2 2 3 3 3 3 4 4 5 5 7 8 7 3 4 6 5 5 5 7 7 7 8 8 11 13 16 17 18 19 20 20 18 17 17 17 18 12 10 12 12 12 12 12 12 11 12 12 12 12 12 12 12 12 12 13 12
Wind_Direction
324 20 40 35 34 29 28 30 35 41 32 18 14 9 5 358 353 355 339 346 348 341 321 285 268 263 245 249 255 275 64 146 184 191 205 223 209 311 269 231 226 234 227 215 213 216 215 213 207 205 197 197 200 206 200 193 183 186 195 200 195 196 205 188 183 167 156 70 76 147 178 200 204 195 205 194 201 203 193 207 192 192 205 207 208
10 23 14 21 18 17 19 21 16 20 9 19 19 358 351 354 1 343 339 342 351 342 325 310 274 250 256 280 62 111 179 201 199 219 211 203 183 182 163 250 233 231 229 218 211 203 205 206 204 199 190 201 211 212 196 195 191 192 182 203 208 200 211 190 177 139 155 185 173 232 144 139 216 196 201 214 209 200 190 195 195 200 208 211 201
28 21 20 15 11 14 19 22 22 20 355 23 12 7 5 359 348 343 337 338 343 342 347 326 293 261 265 174 170 211 248 298 55 54 242 209 204 204 196 198 179 199 242 230 217 206 206 203 206 195 196 196 201 207 201 206 205 202 194 199 205 216 211 205 181 183 165 167 130 73 300 186 191 229 233 224 210 205 179 199 203 209 211 200 199
35 16 12 7 9 8 12 9 358 356 5 3 4 4 2 360 346 338 333 335 337 347 346 329 309 310 116 192 230 214 261 240 261 236 232 264 230 219 215 197 192 195 197 203 217 216 206 207 204 198 203 198 201 202 205 216 211 215 209 213 187 205 196 211 201 199 161 137 158 196 204 162 282 233 218 224 198 199 186 203 196 217 212 193 180
31 19 12 11 10 7 5 355 353 3 358 4 356 351 346 343 340 333 328 329 327 342 347 335 322 340 262 253 243 264 246 230 229 241 229 227 250 239 220 206 198 199 197 201 203 208 208 208 204 207 205 203 202 208 211 213 211 214 210 207 202 211 212 182 210 206 191 182 148 117 80 246 218 213 173 256 167 194 214 196 194 206 217 202 197
31 13 360 350 359 353 359 355 358 349 351 351 344 331 334 336 342 341 340 336 339 342 346 340 332 319 305 296 298 269 263 218 227 235 223 223 229 234 240 225 210 197 194 199 204 204 206 207 207 208 212 207 206 214 215 209 217 217 215 211 218 222 215 184 192 229 207 197 187 188 177 196 169 183 138 270 269 223 214 198 201 206 209 209 211
6 5 356 1 354 358 350 349 340 340 337 338 340 334 330 332 338 339 337 332 334 337 342 343 337 320 303 289 277 278 285 274 214 224 228 229 230 230 229 228 235 223 203 200 204 205 204 201 206 209 212 211 210 211 213 210 211 214 211 214 219 216 207 215 199 182 209 247 223 222 130 124 146 135 202 73 304 307 222 198 210 206 204 209 215
350 344 333 339 336 335 330 317 329 328 321 335 340 338 336 331 334 337 333 331 330 331 332 343 327 318 310 301 288 279 268 277 282 268 244 231 221 227 229 229 227 228 220 207 205 202 198 199 201 207 209 212 210 211 219 218 203 206 207 216 221 214 210 217 197 170 187 207 212 219 209 116 120 93 138 181 182 251 265 211 213 205 205 214 220
224 267 343 339 339 326 320 331 326 335 342 342 342 328 319 318 324 330 332 331 329 332 330 328 319 307 299 294 291 273 269 268 275 274 268 239 234 232 235 241 237 235 230 217 211 206 202 199 196 201 209 213 210 217 220 214 210 203 201 209 216 221 217 219 193 192 199 197 177 227 214 193 172 161 85 70 190 231 261 205 225 148 205 223 221
271 256 274 295 298 311 313 313 344 340 328 329 338 336 329 328 333 335 332 330 325 327 327 320 318 309 302 288 280 278 270 270 262 270 270 243 237 229 221 231 241 246 242 242 235 227 217 207 197 201 208 212 213 217 216 212 212 209 208 209 211 219 218 212 211 197 196 193 196 186 198 192 182 169 149 130 65 199 253 239 194 195 220 225 213
250 276 298 297 286 310 339 345 329 327 330 337 344 354 349 346 340 339 329 325 327 326 326 319 317 308 291 287 276 271 273 272 276 271 263 259 251 241 224 223 223 234 233 240 244 241 234 219 208 208 212 213 213 212 212 212 209 207 207 204 208 210 207 204 211 203 181 192 204 195 200 191 196 205 197 185 197 202 226 255 233 201 226 252 220
287 321 329 336 350 349 345 342 335 328 334 344 345 348 353 345 341 336 331 332 329 326 324 319 317 307 286 279 278 271 266 264 259 263 262 260 258 258 234 218 218 223 219 231 236 233 236 234 221 213 213 212 214 209 207 203 201 197 197 200 208 214 215 213 224 218 191 192 206 209 207 199 205 208 188 189 192 212 215 240 228 200 266 225 248
287 283 308 332 333 322 334 330 338 344 345 341 341 343 346 343 342 339 330 331 329 324 321 316 316 313 305 290 279 275 265 253 254 258 259 259 260 264 254 229 204 213 207 220 226 215 222 238 237 226 221 220 220 206 202 198 189 189 181 178 177 191 204 207 216 223 206 202 207 204 207 204 209 195 182 183 196 198 202 237 243 190 253 262 239
259 249 263 309 320 335 340 345 343 341 342 340 338 341 341 339 340 337 328 326 328 326 323 321 317 313 309 299 288 279 270 258 251 254 264 263 250 258 260 246 223 207 210 219 209 197 203 219 218 209 213 227 223 221 211 198 185 184 189 197 203 206 199 203 212 214 215 219 208 202 209 211 210 189 192 185 180 176 197 210 223 229 202 257 267
259 249 306 335 344 351 345 340 339 337 334 336 335 336 337 335 336 333 329 329 329 325 324 322 318 319 320 313 299 286 267 262 262 265 276 277 266 251 255 260 244 225 197 210 220 186 198 217 221 207 193 197 203 206 203 194 193 194 200 210 211 205 209 211 219 213 215 218 220 220 217 213 211 198 193 202 182 197 202 189 191 243 252 228 250
294 291 330 342 339 336 337 333 331 332 329 329 332 330 333 328 327 328 328 327 326 327 326 320 315 315 318 327 324 313 289 266 267 271 279 282 282 263 256 261 253 234 239 244 234 182 164 159 153 281 281 261 221 205 199 197 196 201 212 215 219 213 212 211 219 220 231 228 229 231 230 229 212 204 201 201 197 199 206 188 192 212 243 265 232
289 269 289 320 332 333 326 324 327 326 327 327 322 323 322 324 324 325 329 328 329 330 325 321 317 321 330 337 340 344 354 339 302 290 280 279 281 277 263 247 246 236 247 254 250 244 239 219 207 215 214 209 216 211 206 205 202 205 210 233 286 286 260 249 252 232 235 235 236 223 224 228 220 208 208 201 198 201 206 203 195 211 208 241 263
271 268 272 278 286 295 307 310 313 314 314 321 320 318 320 320 317 319 332 332 330 329 329 326 325 329 336 343 344 349 357 360 350 326 312 307 293 286 286 280 251 245 245 253 252 245 234 231 223 226 217 206 211 211 207 204 192 168 112 206 244 210 206 243 250 258 257 239 243 240 234 235 220 202 210 205 199 201 203 202 203 213 203 227 242
275 257 274 295 286 290 294 298 307 313 315 318 318 319 321 324 324 322 331 328 322 322 324 323 326 334 338 337 337 346 358 2 360 357 354 337 322 300 277 267 265 250 249 254 249 248 239 225 219 227 224 222 218 215 205 199 180 180 202 218 234 185 200 225 232 227 230 217 230 239 239 243 227 216 210 206 210 202 206 204 212 203 215 219 231
242 250 254 256 270 276 290 303 311 314 318 318 318 318 320 325 328 328 335 334 333 337 337 336 338 343 344 344 347 350 354 0 1 3 7 5 347 323 294 281 265 256 244 244 245 234 243 250 241 238 239 236 228 220 209 200 193 199 203 213 210 183 192 213 230 228 230 219 225 230 230 231 226 217 213 205 204 210 207 209 204 205 215 218 223
232 235 244 255 269 289 301 306 307 314 314 320 319 317 311 321 337 338 344 336 335 333 335 336 336 344 348 352 345 345 348 348 356 13 13 360 353 346 328 292 274 256 243 242 247 242 236 241 243 238 237 238 232 226 213 207 205 213 210 214 213 198 208 221 223 226 223 221 222 222 224 225 214 214 223 219 212 205 208 213 206 208 213 212 218
231 244 248 267 281 288 300 312 317 329 326 328 318 320 323 330 333 337 345 345 335 333 335 332 334 336 348 346 346 341 342 346 349 9 14 1 353 346 336 327 300 277 246 242 251 245 233 238 238 238 239 237 231 227 211 206 221 223 221 214 218 214 220 233 238 244 241 237 237 237 234 229 212 220 222 227 221 215 211 217 219 216 221 218 208
240 243 261 265 274 289 295 300 304 315 322 320 319 322 322 323 330 337 346 342 337 327 329 331 329 334 342 345 345 349 346 349 351 353 1 3 352 344 344 339 329 306 275 252 255 259 250 245 244 241 237 236 235 237 213 207 227 233 231 225 221 226 233 237 242 244 246 241 238 236 235 229 219 221 225 228 223 223 217 219 224 216 223 219 208
262 279 266 273 295 298 312 317 323 332 330 322 318 322 326 329 330 333 339 339 338 334 332 335 335 336 339 345 353 349 352 353 354 346 343 349 349 346 343 343 339 328 298 256 249 260 260 259 261 262 251 237 235 242 235 217 215 238 230 224 222 221 228 238 244 250 255 251 245 244 239 230 222 224 227 223 223 223 220 221 224 222 224 224 218
289 286 300 322 315 306 307 309 314 324 323 322 325 326 329 331 331 334 326 332 336 334 335 335 336 337 341 348 349 352 354 352 349 345 342 342 348 344 346 348 343 344 338 311 264 239 261 261 261 266 267 252 233 229 237 241 220 223 234 234 230 230 231 236 241 245 250 249 247 245 245 236 225 228 227 226 223 224 225 222 224 217 220 222 222
267 299 325 305 283 301 309 308 327 325 315 315 322 324 327 330 329 329 325 331 338 336 334 334 341 344 345 347 348 350 353 349 343 343 341 341 342 348 345 345 348 341 343 345 327 282 253 259 258 260 261 261 243 228 230 233 240 242 241 241 241 241 245 247 248 246 247 246 249 250 249 242 231 227 228 227 224 228 226 223 224 219 216 215 221
269 292 290 309 304 287 298 311 315 309 312 315 321 325 327 330 330 335 333 338 339 339 337 343 345 350 350 352 349 350 347 346 342 337 335 348 354 350 350 347 343 339 345 350 352 338 320 285 280 268 262 264 269 262 252 245 247 252 253 253 246 241 244 249 249 248 248 247 245 249 250 244 236 233 234 233 228 225 223 227 221 219 217 213 215
304 304 293 267 264 294 309 313 321 321 314 321 330 323 322 328 330 335 341 346 345 342 340 343 350 355 358 352 349 344 349 346 344 340 341 351 358 357 352 344 344 353 352 351 348 345 350 344 332 321 313 306 313 303 285 278 268 261 258 249 241 240 242 244 246 244 242 242 241 243 244 243 238 234 235 237 234 229 225 228 226 222 218 218 218
306 282 289 270 273 277 301 311 305 312 324 325 326 324 330 330 336 337 339 348 345 346 345 343 351 3 357 350 346 350 349 350 349 349 351 353 357 358 355 354 354 356 356 350 347 353 355 10 6 349 337 294 276 342 357 340 326 308 278 255 247 241 239 241 241 241 238 235 238 241 245 245 242 238 233 234 233 230 230 236 230 219 220 219 222
260 269 260 255 257 271 272 289 302 319 317 320 322 325 328 334 341 340 343 344 349 349 351 349 2 1 356 352 352 353 353 351 354 358 356 351 353 359 4 7 5 360 359 2 5 15 24 20 20 18 24 37 34 31 9 19 22 12 339 331 318 297 268 249 245 242 235 228 230 232 234 237 241 244 245 241 241 236 227 229 244 233 223 224 224
264 268 257 249 265 264 278 302 308 312 302 302 303 318 325 344 345 342 345 342 349 350 353 356 4 3 359 356 358 358 353 357 355 356 359 360 359 0 11 16 12 8 6 6 14 29 26 22 38 50 51 46 35 18 12 16 12 8 1 327 318 305 309 308 297 277 264 249 234 229 228 228 227 228 233 235 239 242 230 225 232 240 232 228 234
248 249 245 260 260 287 301 297 292 291 297 302 321 325 336 346 336 346 340 344 356 355 355 353 1 358 1 2 359 355 356 356 357 0 359 359 3 11 18 20 17 13 6 5 20 23 27 27 57 62 57 49 43 20 20 15 11 4 1 347 315 301 289 287 295 294 288 286 290 292 284 275 247 237 240 244 243 242 238 235 235 238 239 236 229
227 224 229 239 241 236 264 273 271 281 291 307 313 330 341 326 341 335 342 359 355 356 352 353 354 356 357 358 356 357 356 357 358 357 357 2 13 19 20 20 20 12 8 16 13 16 23 23 42 63 57 47 41 24 20 16 9 4 357 350 357 343 321 309 296 300 303 300 291 279 285 282 286 270 245 245 249 242 229 230 230 236 241 238 238
225 218 221 236 245 255 249 245 257 276 274 305 307 318 319 317 339 346 359 350 357 351 355 349 351 355 354 353 353 354 356 357 355 359 3 11 18 24 20 20 16 17 20 16 12 15 14 24 26 32 63 55 40 25 23 17 10 2 354 350 356 351 351 342 336 326 320 319 315 314 304 296 290 286 278 275 269 263 266 239 238 243 245 244 242
211 228 240 234 227 252 289 18 0 355 346 351 354 351 331 0 358 354 355 356 355 351 354 351 354 352 354 355 355 357 357 358 358 2 9 16 19 20 24 22 19 19 16 12 6 7 13 22 25 22 31 54 42 28 23 18 12 3 351 353 355 359 0 358 358 356 347 338 332 323 317 310 314 309 306 308 301 297 285 270 249 235 233 235 229
211 203 218 213 206 185 164 181 315 17 340 24 337 321 0 356 348 7 353 357 354 356 353 351 0 355 358 356 356 358 359 0 1 5 13 17 18 20 20 18 19 20 19 14 13 11 17 19 21 23 23 30 43 31 22 17 13 6 352 357 356 353 353 351 350 349 342 340 339 338 334 327 317 311 306 296 287 287 286 289 288 277 259 242 233
209 191 199 207 192 172 200 177 95 77 33 351 315 335 20 18 12 355 354 358 3 1 354 354 358 357 358 357 357 1 360 2 2 9 14 13 14 16 18 16 16 19 18 19 17 11 16 19 19 20 20 18 24 30 23 19 13 7 4 2 357 354 350 346 342 338 332 329 332 336 335 327 324 323 357 359 359 348 319 305 287 279 276 272 262
184 190 194 179 161 137 159 138 132 68 16 300 316 359 50 29 8 354 2 7 9 355 348 353 357 354 356 356 357 2 3 2 4 10 6 9 12 20 22 13 16 11 16 15 13 14 19 22 22 21 20 12 14 23 23 20 15 11 8 2 356 352 346 345 334 333 330 325 326 331 337 334 333 338 355 355 5 359 349 337 322 309 296 281 274
176 166 170 180 174 169 150 113 86 67 332 321 306 65 53 26 3 351 6 15 354 344 350 352 351 350 352 357 357 3 7 7 8 6 6 8 11 16 15 11 16 14 16 10 16 14 18 22 24 22 18 16 12 16 20 21 16 12 11 6 2 354 353 347 338 332 331 329 326 327 334 338 337 337 341 342 351 5 343 339 322 313 303 299 287
192 201 177 168 163 130 98 98 106 179 271 287 127 71 48 27 354 351 27 359 341 332 328 350 356 355 355 1 2 3 6 9 5 2 1 6 5 9 12 12 15 16 13 12 14 19 21 20 18 19 17 10 10 16 15 20 18 12 11 9 3 360 353 344 342 338 336 336 332 328 331 338 339 336 332 333 332 335 334 318 313 297 294 285 308
175 181 166 143 161 157 158 173 195 232 278 190 122 79 41 359 12 32 6 329 310 319 358 7 3 1 8 12 11 11 7 5 3 2 354 360 358 3 6 10 11 10 14 15 16 17 17 15 17 17 16 13 12 10 8 15 16 12 10 10 5 360 350 341 338 335 336 332 330 329 325 325 325 321 318 316 315 312 312 305 287 274 265 286 309
161 160 150 154 158 165 173 180 241 241 327 132 113 89 57 20 33 18 324 297 310 347 15 19 18 10 11 17 17 13 14 7 1 359 2 4 358 359 14 12 10 7 10 14 9 17 14 12 11 12 14 11 11 12 6 9 11 7 9 8 6 357 343 338 334 332 329 330 326 324 322 319 313 310 308 306 303 302 301 298 282 275 277 281 279
158 177 197 160 161 172 175 168 179 275 245 151 113 90 59 43 37 334 296 302 334 42 39 35 30 24 17 19 15 14 12 7 4 358 4 12 358 2 15 12 11 10 15 14 12 11 9 5 7 11 10 9 6 8 10 6 5 2 3 3 358 350 334 337 332 323 319 316 315 308 307 312 312 311 306 302 298 294 296 286 282 282 279 278 281
192 183 180 178 167 174 174 187 211 207 171 178 116 99 63 41 358 296 308 324 38 43 56 45 33 25 21 16 12 6 8 10 10 5 16 23 17 13 17 15 8 11 11 13 12 9 5 6 4 359 4 7 6 5 6 6 360 358 358 357 351 342 335 335 326 313 312 310 311 315 310 307 305 305 304 302 299 293 283 283 281 280 282 281 276
187 199 186 180 166 178 173 156 194 169 174 147 136 120 83 26 312 309 324 8 29 59 67 52 36 26 22 8 9 10 10 12 13 13 24 20 18 13 18 15 13 15 16 16 16 10 8 1 0 358 355 359 2 2 360 359 358 357 356 354 349 341 342 338 332 323 321 318 309 302 298 300 304 304 304 301 299 297 289 285 283 278 281 281 276
187 182 188 190 171 163 159 153 171 188 189 172 171 147 131 238 286 305 293 309 94 84 69 53 36 25 12 3 16 14 13 11 14 16 24 26 23 18 25 13 15 12 11 17 15 12 10 4 358 355 354 354 355 357 359 356 356 355 354 353 350 347 348 344 339 330 323 315 305 305 312 317 315 319 321 326 322 313 301 293 285 282 274 264 264
191 199 176 172 165 166 173 167 172 203 196 201 182 204 212 240 272 295 312 114 133 90 77 56 31 10 2 6 14 19 12 7 9 10 18 21 24 19 19 25 23 14 11 19 18 16 10 4 359 352 349 350 355 358 358 356 356 354 353 351 351 349 349 347 348 344 338 335 337 342 338 332 336 332 330 320 322 328 326 327 327 311 281 259 250
198 185 182 177 176 176 183 176 185 199 198 193 192 209 224 235 254 244 130 105 104 92 98 91 34 348 346 359 11 17 14 2 3 15 12 10 13 20 22 24 30 26 21 17 18 19 15 5 354 349 348 349 353 357 360 357 353 352 349 350 351 352 353 353 350 349 344 342 341 341 347 353 351 352 352 356 356 348 342 341 339 338 333 314 284
196 203 188 186 187 185 187 180 192 192 184 189 201 216 213 210 234 187 148 131 127 112 125 83 34 34 350 337 351 351 356 0 355 1 11 19 22 9 17 9 20 55 40 32 24 22 20 8 2 358 351 347 348 353 353 349 348 349 350 349 352 355 353 354 352 347 347 346 349 354 0 0 2 359 359 356 353 350 350 346 341 343 338 336 333
197 190 196 201 194 189 188 190 195 183 179 186 199 197 203 219 222 190 160 148 160 155 126 110 7 125 300 316 324 341 350 356 8 1 359 357 16 20 26 43 344 28 52 60 54 39 25 7 7 7 6 352 342 337 340 347 351 351 351 351 347 351 357 357 352 350 0 359 3 2 3 3 0 0 358 356 354 351 347 346 345 340 336 337 339
187 185 204 205 204 199 189 192 194 180 181 187 190 193 185 202 200 182 164 157 161 171 168 200 207 230 231 240 279 311 332 349 352 14 16 3 349 359 9 11 14 20 57 52 52 47 37 29 16 0 360 352 344 343 348 352 353 354 353 351 350 353 358 359 358 358 9 17 12 9 2 1 2 359 358 354 351 349 347 344 343 342 336 336 335